Dewpoint
10 9 9 10 10 11 11 11 12 12 12 12 12 12 13 13 14 14 14 14 14 14 13 11 10 10 9 9 10 10 11 12 12 13 13 14 14 15 15 15 15 16 16 16 16 16 17 17 17 17 17 16 17 17 16 15 14 14 15 15 14 15 15
10 9 9 10 11 11 11 11 12 12 12 12 12 12 12 13 13 13 14 14 13 13 13 13 12 12 11 9 9 9 9 10 11 11 12 12 12 13 13 13 14 15 15 16 16 16 16 16 16 17 17 17 17 17 16 16 15 14 14 14 14 15 14
9 9 10 10 10 11 11 11 11 12 12 11 11 11 12 12 12 13 13 13 13 13 13 13 13 13 12 11 11 10 8 8 9 10 10 11 11 12 12 12 13 13 14 15 16 17 17 17 16 16 17 17 17 17 16 16 16 15 14 14 15 16 15
10 9 10 10 11 11 11 11 11 11 11 11 11 11 11 11 12 12 12 12 12 12 12 12 13 13 13 13 12 12 10 8 9 9 9 10 10 11 11 11 12 12 13 14 15 16 17 17 16 16 16 16 16 17 16 16 17 16 15 14 15 15 15
10 10 10 11 11 11 11 11 11 11 11 11 10 11 10 11 11 11 11 11 11 10 11 11 12 12 13 13 13 12 11 10 9 9 9 9 9 10 10 11 11 11 12 12 14 15 15 16 17 17 16 16 16 16 16 16 16 17 16 15 14 15 15
10 10 10 11 11 11 11 11 10 10 10 10 10 10 10 10 11 10 11 11 9 8 9 9 9 9 10 10 11 11 11 11 10 9 9 9 9 9 10 10 10 10 11 12 12 13 14 16 16 16 17 17 16 16 16 16 16 17 18 16 15 14 14
10 10 11 10 10 10 10 11 11 10 10 10 10 10 10 10 10 10 10 11 9 9 9 7 6 5 5 5 6 6 9 10 10 9 9 9 10 10 9 9 10 10 10 11 11 12 13 15 16 16 17 17 17 16 16 16 16 16 17 17 15 15 14
10 11 10 10 9 9 9 10 10 10 10 10 10 11 11 10 10 10 11 11 11 11 10 9 6 5 4 3 3 3 4 6 8 9 9 9 9 10 10 9 9 10 10 11 12 13 13 14 16 17 17 17 17 16 16 16 16 17 17 17 16 15 15
11 11 11 9 9 9 9 10 10 10 10 10 11 11 11 10 10 10 11 11 11 11 10 8 6 5 5 4 3 3 3 3 5 7 8 9 9 9 9 9 9 10 11 12 12 13 13 13 15 16 17 17 17 17 17 17 17 17 17 17 17 16 15
11 11 11 10 10 10 10 10 10 10 10 10 10 11 10 9 9 9 10 10 10 10 8 6 5 4 4 4 5 4 4 4 3 4 6 8 9 10 9 9 9 10 11 12 12 13 13 14 14 15 16 17 17 17 17 17 17 17 17 17 16 15 15
11 11 11 10 10 10 10 10 10 10 10 10 10 10 9 8 8 8 9 9 9 7 6 5 4 4 3 4 5 5 6 7 7 6 5 6 8 10 10 10 9 10 10 11 12 13 14 14 14 15 16 17 17 17 17 17 17 17 17 17 16 15 15
11 11 11 11 11 10 10 10 10 11 11 10 10 10 9 8 8 8 8 8 7 6 5 4 3 3 3 4 5 6 7 9 9 9 7 6 6 8 10 10 10 10 9 10 12 12 13 14 15 15 15 16 17 17 17 17 17 17 17 17 16 16 15
11 11 11 11 11 10 11 11 11 11 11 10 10 10 10 10 10 10 8 7 6 5 4 4 3 3 4 4 3 4 6 9 10 10 9 7 7 8 9 10 11 10 9 9 11 12 12 13 14 15 15 15 16 17 17 17 17 17 17 16 16 16 15
11 11 11 11 11 11 11 11 10 11 11 11 11 11 12 12 11 10 8 6 5 5 4 4 4 4 3 4 5 7 9 10 11 11 10 9 8 9 10 11 11 11 10 9 10 12 12 13 14 15 16 16 16 17 17 17 17 17 17 16 16 16 16
11 11 10 11 11 11 11 10 11 11 11 11 11 12 12 11 10 8 7 6 5 5 5 5 5 4 5 7 9 11 11 12 12 12 11 10 9 10 10 11 11 11 10 9 10 11 12 12 13 14 15 16 16 16 16 17 17 17 17 16 16 16 16
11 11 10 10 10 10 10 10 11 11 11 11 11 11 11 10 8 6 5 5 5 5 5 5 4 6 9 11 11 12 12 12 12 12 12 11 10 10 10 11 11 11 11 10 10 11 12 12 13 13 14 15 16 16 16 16 16 16 16 16 16 17 16
10 10 10 9 9 10 10 10 10 10 10 10 11 11 11 9 7 6 5 5 5 5 5 4 4 7 10 12 12 12 12 12 12 12 12 11 10 10 11 11 11 11 11 11 11 11 11 12 13 13 13 14 15 16 16 16 16 16 16 16 16 17 17
10 10 10 10 10 10 10 10 10 10 10 9 10 11 11 10 7 6 5 5 5 5 5 5 8 10 11 12 12 12 12 12 12 12 11 11 11 11 11 11 11 11 11 11 11 11 11 11 12 12 12 13 15 16 16 16 16 16 16 16 17 17 17
10 10 10 10 10 10 10 10 10 10 9 9 10 11 10 8 6 5 5 6 6 6 6 9 11 12 12 12 12 12 12 12 12 12 11 11 11 11 11 11 11 11 11 11 11 11 11 11 11 12 12 12 14 15 16 16 15 15 16 16 16 17 17
10 10 10 10 10 10 10 10 9 9 10 9 10 10 8 6 5 5 5 6 6 7 9 11 12 12 12 12 12 12 12 12 12 12 11 11 11 11 11 11 11 11 11 11 11 11 11 11 12 12 12 12 13 13 15 15 15 15 15 15 15 16 16
10 10 10 10 10 10 10 10 9 9 10 10 9 9 9 8 7 6 7 8 9 10 11 12 12 12 11 11 11 11 11 11 12 12 11 11 11 11 11 11 11 11 11 11 10 10 10 11 11 12 12 12 12 12 13 14 14 15 15 15 15 16 15
9 9 9 9 9 9 9 9 9 10 10 9 10 10 10 9 9 9 10 10 11 11 11 11 11 11 11 11 11 11 11 11 12 12 11 11 11 11 11 11 11 11 11 11 10 10 10 10 10 11 12 12 12 12 13 13 14 14 15 15 15 15 15
9 9 9 9 9 9 9 10 10 10 10 10 10 10 10 9 10 11 11 11 11 11 11 11 11 11 11 11 11 11 11 11 11 11 11 11 11 11 11 11 11 11 11 10 10 9 10 10 10 11 11 11 11 12 13 13 14 15 15 15 15 15 15
8 8 8 9 9 9 10 10 10 10 9 9 10 9 10 10 11 11 12 11 11 11 11 11 11 11 11 11 11 11 11 11 11 11 11 11 11 11 11 11 11 11 11 10 10 9 9 10 10 10 11 11 11 11 12 13 14 15 15 15 15 15 15
7 8 8 9 9 10 10 10 9 9 10 10 10 9 9 10 11 12 12 11 11 11 11 11 11 11 11 11 11 11 11 11 11 11 11 11 11 11 11 11 11 11 11 10 10 10 10 11 11 11 11 11 10 11 11 12 14 14 15 15 15 15 15
7 8 8 9 10 10 10 10 10 10 11 11 10 8 9 11 12 11 11 11 11 11 11 11 11 11 11 11 12 11 11 10 11 11 11 11 11 11 11 11 11 11 11 11 11 12 12 12 12 11 10 10 11 11 11 12 13 14 15 15 15 15 15
8 8 7 8 9 9 10 10 10 10 11 11 9 7 8 11 12 11 11 11 10 10 11 10 11 11 11 11 12 11 10 10 11 11 11 11 11 11 11 11 11 11 11 11 10 11 11 12 12 11 10 10 11 11 11 12 13 14 14 15 15 15 15
7 7 7 8 9 10 10 10 10 10 10 11 10 7 7 10 11 11 11 10 10 10 10 10 10 10 11 11 11 11 10 10 11 11 11 11 11 11 11 11 11 11 11 11 10 10 10 11 11 12 11 10 10 10 10 11 12 13 14 15 15 15 15
7 7 8 9 9 10 10 10 10 10 10 11 10 9 9 10 11 11 11 11 11 11 10 11 11 10 11 11 11 11 10 9 10 11 11 11 11 11 11 11 10 10 10 10 10 10 11 12 12 13 12 11 10 10 10 10 11 13 14 14 15 15 15
9 8 8 8 8 9 10 11 10 10 10 11 11 10 10 11 11 11 11 11 11 11 11 11 11 10 11 11 11 11 10 9 9 11 11 11 11 11 11 11 10 10 10 10 10 10 12 13 13 13 14 13 12 11 11 11 12 14 14 14 14 15 15
9 9 9 9 9 10 11 11 11 10 10 11 11 11 11 11 11 11 11 11 11 11 11 11 11 10 10 11 10 11 10 10 9 10 11 11 11 11 12 12 12 11 11 11 12 12 13 13 13 12 13 14 13 12 11 12 14 14 14 14 14 15 15
9 9 10 10 10 10 10 10 10 10 11 11 10 10 11 11 11 11 11 11 11 11 10 10 10 10 10 10 10 10 10 10 10 10 10 11 11 12 12 13 13 13 12 13 13 13 13 13 13 12 12 13 14 13 12 12 14 14 14 14 14 14 15
9 10 10 10 10 10 10 10 10 10 11 10 10 10 10 11 11 11 11 11 11 10 10 10 10 10 10 10 10 10 10 10 11 10 11 11 11 11 12 12 13 13 13 13 13 13 13 13 13 13 12 12 14 14 13 12 13 13 14 14 15 15 15
9 10 10 10 10 10 9 10 10 10 10 10 10 10 10 11 11 11 11 11 11 11 10 10 10 10 10 10 10 10 10 10 10 11 11 11 11 11 11 11 12 12 12 13 13 13 13 13 13 13 12 12 13 14 14 13 13 13 14 14 14 15 15
10 10 10 10 10 9 9 10 10 10 10 10 10 10 11 11 11 11 11 11 10 10 10 10 10 10 10 9 9 10 10 10 10 11 11 11 11 11 11 11 11 12 12 12 12 12 12 12 12 12 12 12 12 13 14 14 14 13 13 13 14 15 15
10 10 10 10 10 10 10 9 10 10 10 10 10 11 11 11 11 11 11 10 10 10 10 10 10 10 9 9 9 9 9 10 10 10 10 11 11 11 11 10 11 12 12 11 11 11 11 11 11 11 11 11 11 11 11 12 12 12 12 12 13 14 14
10 10 10 10 10 10 10 10 9 9 9 10 11 11 11 11 11 10 10 10 10 10 10 9 10 10 9 9 9 9 9 10 10 10 10 10 11 11 11 11 10 11 12 11 11 11 11 11 11 11 11 10 9 9 9 9 10 11 12 12 13 13 14
10 10 10 10 11 11 10 10 9 9 10 11 11 11 11 11 11 10 10 10 10 10 10 9 9 9 9 9 9 9 9 10 10 10 10 10 10 11 11 11 10 11 11 11 11 11 11 11 11 11 11 10 9 8 8 9 10 11 12 12 13 13 14
Wind_Speed
6 7 6 6 7 7 8 8 8 8 8 8 9 9 8 8 8 8 8 9 9 9 10 11 11 10 10 10 10 9 9 9 10 10 11 11 12 12 13 13 14 15 16 17 17 18 19 19 19 20 21 20 20 22 24 26 28 28 27 27 25 23 22
5 6 6 6 6 7 7 7 7 7 8 8 9 10 9 9 9 8 8 8 9 9 9 10 10 9 10 10 10 10 10 10 10 10 11 11 12 12 13 13 14 15 15 16 17 18 19 20 20 21 22 22 23 23 24 26 28 30 30 28 27 25 25
5 5 5 5 5 6 6 6 7 7 7 8 9 10 10 10 9 9 8 9 10 10 10 10 9 9 10 10 10 10 10 11 10 10 10 11 12 12 13 13 13 14 15 16 17 18 18 18 19 20 21 23 24 24 25 24 26 30 32 30 29 27 27
5 5 5 4 4 4 4 5 6 6 7 8 9 10 10 10 9 9 9 10 11 11 11 11 10 10 10 10 10 10 10 11 11 11 11 10 11 12 13 13 13 13 14 15 16 17 19 20 20 20 20 22 23 24 25 24 23 28 32 33 32 31 28
6 5 4 3 3 3 3 4 4 5 6 7 8 9 10 10 10 10 11 12 13 13 13 13 12 11 10 10 10 10 11 11 11 12 12 11 11 11 12 13 14 14 14 14 15 17 19 21 21 20 20 21 23 24 25 26 26 26 29 33 34 33 29
7 6 4 3 3 2 2 2 3 4 5 6 7 8 9 10 10 10 11 12 14 16 16 16 16 15 13 13 13 13 12 12 12 12 12 12 12 12 12 13 13 14 15 15 16 17 18 19 20 20 20 20 23 25 25 28 29 26 26 32 35 35 33
6 5 4 2 2 1 1 1 2 3 4 5 6 7 8 9 9 9 9 10 13 15 16 18 18 18 17 17 17 16 15 14 13 13 12 12 13 13 12 12 13 14 15 15 17 17 17 17 19 21 21 20 22 24 25 28 30 29 28 31 35 36 34
7 5 3 2 1 1 2 2 2 3 4 4 5 7 8 9 9 9 9 10 11 13 15 18 19 18 18 17 17 17 17 16 15 14 14 13 14 14 14 13 13 14 15 15 16 16 17 18 19 19 19 20 22 23 25 28 29 31 31 29 31 35 34
7 6 3 1 1 1 2 2 2 3 4 4 5 7 8 10 11 11 11 12 13 14 17 19 20 19 19 19 18 18 18 18 17 16 16 15 15 14 14 15 14 14 14 15 16 16 17 18 19 20 19 21 23 23 25 28 29 33 33 28 30 35 34
8 7 4 2 1 0 1 2 3 3 4 5 6 7 9 12 13 13 13 14 16 18 20 21 21 21 21 20 20 20 20 19 19 18 18 17 17 16 15 15 15 14 14 15 16 16 17 18 20 22 22 21 22 23 24 27 29 32 33 30 32 35 33
8 7 5 4 2 1 1 2 3 3 4 5 7 8 11 14 16 15 16 17 18 20 21 22 23 23 23 23 22 22 21 20 19 19 19 18 18 18 17 16 16 15 15 15 16 16 17 19 20 21 22 21 21 22 23 25 27 30 31 30 32 34 34
9 7 6 4 3 2 2 2 2 2 3 5 7 9 12 15 16 17 18 19 20 21 22 23 23 24 25 25 24 23 22 20 19 19 20 20 19 18 18 16 16 16 16 16 17 17 17 19 21 21 21 21 22 23 23 24 25 28 31 32 32 33 34
8 7 6 5 3 3 2 1 1 1 2 4 7 9 11 12 13 15 18 19 20 21 22 22 23 24 25 25 26 25 23 21 20 19 20 20 18 17 17 17 16 17 17 17 17 17 18 19 20 21 20 21 22 23 22 23 24 27 31 33 33 34 34
8 7 6 5 4 3 2 1 0 2 4 5 7 8 9 10 12 15 18 19 20 21 22 23 23 24 25 25 24 22 21 19 18 17 17 18 17 17 16 17 17 17 18 18 17 17 18 18 19 19 19 19 21 22 20 21 23 26 29 32 33 33 33
9 8 7 6 5 4 2 0 2 4 5 7 8 10 11 13 16 19 20 21 21 22 23 24 25 25 24 22 20 17 16 16 15 15 16 16 17 17 16 16 18 18 18 18 18 17 18 18 19 19 19 18 19 21 21 22 24 26 28 29 31 31 31
8 7 7 5 3 2 1 2 3 5 7 9 11 13 15 17 20 21 22 22 23 23 24 24 26 25 20 17 16 16 15 15 15 16 16 16 17 17 17 17 17 18 18 18 18 18 18 19 18 19 19 18 18 20 21 23 26 28 28 28 28 28 27
7 7 6 4 2 1 2 3 5 7 9 10 12 14 16 18 21 23 23 23 24 24 24 26 26 23 18 16 15 15 15 16 16 16 16 16 16 17 17 17 18 18 19 18 18 18 18 19 18 19 19 18 18 20 21 22 23 26 28 28 28 27 26
7 6 5 3 2 1 3 5 7 9 11 12 13 14 16 19 22 23 23 23 24 24 25 25 22 19 17 16 15 15 16 15 15 16 17 16 16 17 17 18 18 18 19 19 18 18 18 19 19 19 19 19 18 20 22 23 22 23 26 27 27 26 27
6 5 4 3 1 2 4 6 9 11 13 15 16 16 18 21 24 24 23 23 24 24 24 21 17 16 16 16 16 16 16 16 15 16 17 16 16 17 17 17 18 18 19 19 19 18 18 19 20 20 20 20 19 18 19 22 22 22 23 24 25 25 25
5 4 3 2 1 3 5 6 9 11 13 15 17 18 21 22 23 24 23 23 24 23 20 16 15 16 16 16 16 16 16 16 16 16 17 17 16 17 17 17 18 18 18 19 20 19 19 18 19 20 20 19 20 20 19 20 21 20 20 22 24 25 24
5 4 3 2 2 3 5 7 9 10 12 15 17 18 19 21 22 22 22 22 20 18 16 15 16 17 17 16 16 17 17 17 16 17 17 17 17 17 17 17 17 17 18 20 21 21 20 19 18 19 19 19 20 21 20 19 19 19 19 20 23 25 25
5 4 3 2 3 4 6 8 9 10 13 16 17 16 17 19 20 20 19 18 17 16 16 16 16 17 18 17 17 17 18 17 17 18 17 18 18 18 18 18 18 18 19 21 22 21 21 21 19 18 18 19 19 20 20 20 18 17 18 19 21 22 24
4 3 3 3 3 5 7 8 8 11 15 17 17 17 18 19 18 16 15 16 16 17 17 17 18 18 18 18 17 18 18 18 19 18 18 18 19 19 19 18 18 18 19 21 22 22 21 21 20 19 18 19 19 19 20 20 20 19 18 18 19 20 21
3 3 3 3 5 6 7 8 10 13 16 17 17 18 18 18 16 15 15 15 17 18 18 18 19 19 18 17 18 19 19 19 19 19 18 19 19 19 19 19 18 18 19 21 22 22 21 20 19 18 19 19 18 18 19 20 20 20 19 19 18 18 20
3 3 3 4 6 6 7 9 13 16 16 15 16 17 18 17 14 15 16 16 17 18 19 19 19 18 17 18 19 19 20 20 19 19 19 19 20 20 20 20 19 18 19 21 22 21 20 19 18 18 18 19 19 18 19 19 20 21 20 20 19 19 20
3 4 5 6 6 7 8 11 14 16 15 14 16 17 18 16 14 14 16 17 17 18 20 20 19 18 18 18 18 19 20 19 18 19 20 20 20 20 20 20 19 19 19 20 21 20 19 18 18 18 18 18 19 19 20 19 19 21 21 20 19 19 20
4 5 6 7 7 9 10 11 13 14 14 15 17 18 18 16 14 14 15 16 18 19 20 20 19 18 18 18 18 19 19 19 18 20 20 20 20 20 20 19 19 19 19 20 21 21 20 18 18 18 18 18 18 19 20 19 18 20 22 21 20 20 21
5 6 6 7 8 10 11 12 13 14 14 15 17 18 17 16 15 15 15 16 18 19 19 19 19 18 18 18 18 19 19 19 19 20 20 19 19 20 20 19 19 20 20 20 21 21 20 19 18 17 18 19 19 18 19 20 19 18 20 21 22 22 24
5 6 7 8 9 10 12 13 13 13 14 15 16 17 15 14 15 15 15 16 18 18 18 18 18 18 18 18 18 18 19 20 19 19 20 19 19 20 20 20 20 21 21 21 21 20 20 19 17 17 18 19 19 19 19 20 19 17 17 19 21 23 25
6 7 8 9 10 11 12 13 14 14 15 15 15 15 14 13 14 15 16 18 19 18 18 18 18 18 18 18 19 19 20 20 20 19 19 20 20 21 22 21 20 20 20 20 20 20 18 18 17 16 17 18 19 19 19 18 17 18 18 18 20 22 24
7 8 9 10 11 12 12 13 14 15 16 16 15 15 13 12 13 15 17 18 17 17 18 18 17 18 19 19 20 20 21 22 21 19 18 20 21 22 21 20 19 18 19 19 18 18 18 18 17 16 16 16 17 18 18 17 16 17 19 18 19 21 23
8 9 10 11 12 12 12 13 14 15 16 16 16 15 13 13 14 14 16 17 17 16 17 18 18 19 19 20 21 22 21 21 21 20 19 19 20 20 19 18 18 18 18 17 16 16 17 17 18 18 16 15 15 16 18 17 15 16 17 18 18 19 20
10 10 10 11 11 12 13 14 14 15 16 17 16 15 15 14 14 14 15 17 16 16 17 17 18 19 20 22 23 23 22 21 21 21 20 20 20 20 19 18 18 17 17 16 16 16 16 16 17 17 16 14 14 15 17 18 17 15 15 15 16 16 15
9 10 10 10 12 13 14 14 15 15 16 17 16 16 15 14 14 14 15 16 16 16 17 18 19 20 21 22 23 23 22 22 22 22 22 22 21 20 20 20 19 18 17 16 16 16 16 16 16 16 15 14 14 14 16 17 17 15 14 14 14 13 12
9 10 10 11 12 14 14 14 15 15 16 16 16 16 15 14 14 14 16 17 17 17 18 20 21 21 21 22 23 22 22 22 22 21 22 22 21 21 21 21 20 20 20 19 18 18 18 17 18 17 15 15 14 14 15 15 15 15 16 16 16 15 13
9 10 11 12 13 13 14 14 15 16 16 16 16 15 14 14 14 15 17 18 17 17 19 21 22 22 21 22 23 22 22 23 23 22 21 21 21 22 23 22 20 20 22 21 20 19 19 19 19 18 16 16 16 16 16 16 16 16 16 17 18 18 16
10 11 12 13 13 13 13 14 15 16 16 16 14 14 14 15 15 16 18 18 17 17 19 21 22 22 21 22 23 22 23 23 23 23 22 21 20 21 23 22 19 19 20 20 20 18 17 16 17 16 16 17 18 17 17 17 17 16 16 15 16 17 17
11 12 12 13 13 13 14 15 15 15 15 14 13 13 14 15 16 17 17 17 17 17 19 21 23 22 21 21 22 21 22 22 22 22 22 21 20 22 23 22 20 20 20 19 19 18 16 15 15 15 15 16 17 18 17 17 16 15 15 14 13 14 15
Wind_Direction
110 103 93 84 75 64 55 48 43 40 38 37 35 34 32 30 33 31 29 30 25 19 12 8 6 3 1 358 351 346 341 337 333 328 324 320 315 311 308 304 299 291 285 280 272 267 264 259 254 251 246 241 238 239 243 244 241 235 230 228 229 233 237
120 111 96 84 74 63 53 45 40 36 32 29 24 23 24 25 29 31 30 27 22 17 9 4 3 357 353 351 346 343 338 333 328 324 321 318 317 314 310 309 306 300 294 285 275 270 270 267 260 253 249 245 241 239 239 241 242 238 233 231 231 234 237
132 118 103 89 79 69 59 48 41 37 30 26 23 22 22 22 25 27 24 18 15 14 8 5 1 353 347 345 340 337 333 329 324 320 315 311 310 308 306 305 303 301 298 290 280 272 268 268 266 259 253 249 245 241 238 237 240 241 236 232 233 233 235
143 129 117 106 97 83 65 53 44 41 36 29 25 24 21 19 18 16 12 11 11 11 9 6 2 355 350 346 340 334 330 327 322 317 315 310 306 304 303 301 298 295 293 291 286 278 270 266 266 265 262 255 247 242 239 234 234 239 238 234 232 232 233
156 143 133 123 115 98 68 56 44 40 38 30 25 22 16 13 12 8 6 8 9 9 8 5 1 356 351 346 341 336 333 328 319 314 313 311 308 305 302 300 298 294 290 287 284 280 276 271 266 265 265 260 253 246 241 236 231 232 237 235 232 231 229
164 155 150 140 127 123 85 52 36 34 31 24 20 16 11 7 6 3 1 2 2 2 3 0 358 356 349 344 339 336 333 327 319 314 311 310 308 305 302 299 298 296 292 287 284 281 279 275 271 269 265 261 258 252 244 240 234 228 230 233 231 230 229
164 157 158 149 138 138 87 45 29 25 17 14 9 6 5 2 359 356 353 352 352 354 355 353 354 353 348 345 341 337 334 328 322 317 311 308 305 302 300 297 295 295 292 289 289 287 282 276 272 270 265 260 258 256 248 242 237 230 228 230 229 228 228
165 162 167 152 127 65 52 38 12 6 2 360 356 354 356 355 353 349 344 341 342 343 344 345 346 346 345 344 340 337 334 330 326 321 315 309 304 300 300 297 295 293 290 289 290 288 283 278 273 269 264 260 258 259 252 243 238 233 228 226 228 228 227
167 166 170 155 126 37 40 18 347 347 347 346 346 347 350 348 346 344 340 338 337 336 337 339 341 342 342 340 337 334 332 328 326 322 317 312 305 301 299 298 296 293 290 289 288 286 281 277 274 268 263 260 260 260 254 244 239 237 232 223 224 228 227
171 171 173 177 186 244 12 353 337 330 332 338 341 343 345 343 342 340 336 335 334 334 336 338 340 340 339 337 334 331 328 325 322 319 316 312 308 304 300 297 295 292 290 288 287 286 282 276 272 270 266 265 262 259 256 249 242 240 235 225 223 226 226
175 174 179 189 192 210 301 328 328 320 325 335 338 338 340 340 339 337 335 334 335 337 338 339 338 337 336 334 332 328 325 321 318 315 313 310 307 305 302 297 294 291 288 288 287 287 285 279 276 273 271 270 264 258 256 252 246 241 237 229 225 224 225
177 179 186 193 202 221 253 290 309 314 324 333 333 334 337 338 337 335 335 336 337 337 337 336 335 334 333 333 331 328 324 318 314 311 310 310 308 305 303 298 295 292 288 286 286 287 287 285 283 281 276 270 262 258 257 256 250 243 238 233 229 225 224
179 183 190 194 205 221 230 248 298 324 319 327 331 334 335 334 331 331 333 336 337 337 336 335 334 333 332 332 331 328 325 319 313 310 309 311 308 304 302 298 294 294 290 286 285 286 286 287 287 286 283 275 262 256 256 256 253 247 241 237 233 229 226
181 185 191 196 207 212 209 200 13 331 324 332 335 335 332 327 328 331 335 338 339 338 337 335 334 334 333 332 330 327 323 318 312 309 309 312 310 303 299 297 294 294 292 288 285 286 286 287 287 286 285 280 268 257 254 253 250 248 246 242 239 235 230
183 191 196 201 204 194 184 269 344 337 337 339 336 334 332 329 332 335 338 340 339 338 337 336 335 335 333 330 327 322 318 315 311 309 308 311 310 302 297 295 294 294 293 290 286 285 286 287 287 286 284 281 272 263 258 254 250 250 249 246 242 241 238
185 195 201 203 202 190 225 329 343 342 340 339 335 334 332 332 335 337 339 339 338 337 337 336 335 334 329 325 323 320 317 315 312 309 308 310 308 302 297 294 293 293 293 291 287 285 286 287 287 288 288 283 276 270 263 256 252 250 250 247 243 242 242
188 196 199 202 211 230 315 333 342 342 340 337 334 332 331 332 334 336 337 337 336 335 335 335 335 333 327 322 321 320 317 315 312 308 309 311 307 301 297 294 293 292 291 290 287 284 285 287 286 287 288 285 279 275 270 264 257 253 252 248 244 243 243
190 194 194 197 216 290 327 337 341 341 338 335 333 332 330 331 332 334 335 334 333 333 334 334 333 329 326 322 320 319 318 314 311 308 310 311 306 300 297 295 293 292 290 289 288 284 283 285 285 286 288 287 282 276 274 272 267 262 258 251 245 244 244
190 188 190 198 229 311 332 340 340 337 334 334 334 332 329 329 329 331 331 331 332 333 333 332 328 324 323 322 320 319 317 314 311 308 309 308 304 300 298 295 293 292 290 289 287 284 282 283 286 288 289 291 290 284 277 274 270 268 265 256 247 244 245
190 183 190 209 259 318 333 336 333 332 332 331 331 327 326 326 327 327 329 331 331 331 329 325 324 323 321 319 319 317 315 315 311 308 309 309 305 302 299 296 295 293 290 288 286 284 282 280 283 287 290 292 293 290 283 277 271 268 266 258 247 242 244
192 193 207 243 290 322 329 327 326 326 325 325 325 324 322 321 322 324 327 328 327 326 324 322 322 322 319 317 318 316 315 314 310 307 309 309 306 303 300 296 295 294 291 289 287 286 283 281 279 283 287 289 290 290 288 282 274 266 264 259 248 242 242
191 203 228 270 297 314 318 318 318 317 319 322 322 319 316 316 318 321 323 324 323 321 321 321 321 320 318 317 317 316 314 313 309 307 307 307 304 302 300 297 295 294 293 292 291 288 285 282 280 280 283 285 287 289 289 287 281 270 263 258 252 246 245
192 214 239 271 293 307 309 310 311 313 317 320 318 314 314 315 317 318 318 319 321 319 318 320 320 318 317 316 317 316 316 313 309 307 306 305 303 300 299 297 295 294 294 294 293 291 287 284 281 280 281 282 285 288 288 287 282 274 264 257 252 250 249
212 236 252 275 297 304 302 302 308 313 316 318 316 314 313 314 315 314 315 317 317 317 317 317 317 315 314 316 317 317 316 312 308 308 307 304 301 300 298 296 295 294 294 294 294 293 291 286 282 280 280 281 282 285 287 286 280 273 267 259 255 253 251
243 260 274 287 296 298 296 301 308 314 316 314 313 313 312 313 314 313 314 316 314 315 316 314 313 313 313 314 316 315 316 315 312 310 306 302 300 299 297 295 295 294 294 294 294 293 292 288 284 283 283 282 282 283 284 284 279 272 268 263 259 257 253
260 275 288 288 290 293 297 303 309 313 313 310 312 315 313 312 313 313 312 314 314 315 315 312 312 312 312 313 313 313 316 319 316 310 305 302 299 298 297 296 296 295 294 294 293 291 289 286 285 286 284 282 283 283 284 284 277 269 265 263 259 257 256
263 281 288 282 284 292 298 305 309 310 309 309 313 317 316 313 314 312 310 311 313 313 312 311 312 312 312 313 312 312 317 321 317 310 306 303 301 299 297 296 295 294 293 293 292 290 288 284 283 285 285 282 281 282 285 286 279 268 262 260 258 256 256
278 289 291 284 288 296 301 307 311 309 309 310 313 317 317 315 314 313 311 311 311 310 310 311 312 312 312 313 313 313 318 320 315 310 308 305 302 300 298 296 294 293 292 292 293 292 290 286 283 283 284 284 284 284 287 289 284 272 261 258 259 259 258
289 295 296 292 294 301 304 308 311 310 310 310 312 315 316 314 312 311 310 310 309 310 310 311 312 312 312 313 313 314 317 319 315 310 308 306 302 300 298 297 296 294 293 293 293 293 290 286 281 280 281 284 287 289 292 294 291 281 267 259 259 262 262
297 296 298 299 302 305 306 308 310 311 311 312 313 314 315 313 311 309 310 310 310 310 311 311 312 313 312 312 314 315 316 318 316 311 307 305 303 300 299 300 299 297 296 296 295 294 290 284 279 276 276 281 286 289 294 297 295 287 276 264 260 263 264
300 299 300 302 305 306 307 310 312 313 313 315 317 317 316 313 311 310 311 312 311 312 313 312 312 313 312 313 314 313 313 315 316 312 306 303 302 301 301 303 301 298 298 296 292 289 287 285 283 277 272 275 282 288 294 296 292 288 283 274 266 267 268
300 301 301 302 306 309 312 315 316 314 315 318 321 321 318 313 311 312 312 311 313 314 313 311 312 313 313 313 313 312 311 312 312 311 307 303 302 302 301 301 299 297 296 293 288 285 284 285 287 286 279 275 279 287 294 295 289 286 286 280 273 272 272
302 301 302 305 310 314 316 318 318 316 318 321 322 321 317 313 313 314 312 312 313 314 312 312 313 313 313 313 312 312 311 310 310 309 308 306 304 303 301 298 295 293 291 290 288 287 285 283 286 291 291 286 283 286 291 294 293 289 285 281 278 275 273
306 304 305 310 313 314 317 318 318 319 319 320 319 317 315 313 314 315 314 313 313 313 313 313 313 312 313 313 313 312 311 310 309 308 306 305 304 301 299 298 295 290 287 286 285 283 282 281 282 284 287 288 289 289 290 293 295 291 282 276 275 273 269
306 304 308 312 314 316 318 319 318 318 318 317 316 315 314 315 316 315 315 314 314 313 313 314 314 314 314 314 312 311 310 310 309 307 305 305 304 300 295 293 292 289 286 285 282 279 277 276 276 277 278 282 285 285 285 287 289 286 279 271 264 263 263
307 307 310 312 313 317 319 318 317 317 316 315 314 314 315 316 315 315 315 315 314 313 313 315 316 316 315 314 312 310 310 309 309 307 304 303 304 303 298 292 287 285 285 285 285 282 277 273 273 276 278 278 279 280 281 282 284 285 282 272 259 256 258
311 311 311 312 315 317 318 317 317 316 314 313 313 314 317 317 315 315 316 316 314 313 314 316 317 315 314 313 311 310 309 308 308 307 305 302 302 304 302 297 289 286 286 285 284 282 278 272 271 273 275 277 280 282 284 285 287 289 289 283 266 252 250
316 314 313 314 316 316 317 317 318 315 312 312 315 317 318 316 315 316 316 315 314 314 316 316 315 313 312 312 311 310 309 307 305 304 304 303 301 302 303 300 296 296 295 290 285 282 279 275 272 269 270 274 279 282 285 288 290 290 291 291 277 250 241
Height
1550 1551 1552 1553 1553 1553 1553 1552 1552 1552 1552 1552 1551 1551 1551 1549 1549 1548 1547 1546 1546 1545 1544 1542 1541 1541 1540 1539 1539 1538 1537 1536 1536 1535 1534 1533 1532 1531 1531 1530 1529 1528 1528 1528 1527 1527 1527 1527 1527 1527 1527 1528 1529 1529 1530 1530 1532 1533 1535 1536 1537 1538 1538
1549 1550 1551 1552 1553 1552 1553 1552 1552 1552 1552 1551 1551 1550 1550 1549 1548 1548 1547 1547 1545 1545 1544 1542 1541 1540 1539 1539 1538 1537 1537 1536 1535 1534 1533 1532 1531 1530 1529 1528 1527 1526 1526 1525 1525 1525 1525 1524 1524 1524 1524 1524 1525 1526 1526 1527 1529 1530 1531 1533 1533 1534 1535
1548 1550 1550 1552 1552 1552 1553 1552 1552 1552 1552 1551 1551 1550 1549 1548 1548 1548 1547 1546 1545 1544 1543 1542 1541 1540 1539 1538 1537 1536 1536 1535 1534 1533 1532 1531 1530 1529 1528 1527 1526 1525 1524 1524 1523 1522 1522 1522 1521 1521 1521 1521 1522 1522 1523 1524 1526 1527 1527 1529 1530 1530 1532
1548 1549 1550 1551 1551 1552 1552 1552 1552 1552 1551 1551 1550 1550 1549 1548 1548 1547 1546 1546 1545 1544 1543 1542 1541 1540 1539 1538 1537 1536 1535 1534 1533 1532 1531 1530 1529 1528 1527 1526 1525 1524 1523 1522 1521 1521 1520 1519 1519 1518 1518 1518 1518 1519 1520 1521 1523 1524 1524 1524 1525 1526 1528
1547 1548 1550 1550 1550 1551 1551 1551 1552 1551 1551 1551 1550 1550 1549 1548 1547 1547 1546 1544 1543 1543 1542 1541 1540 1539 1538 1537 1536 1535 1534 1533 1532 1531 1530 1529 1528 1527 1525 1524 1523 1522 1521 1520 1520 1518 1517 1517 1516 1516 1516 1515 1515 1515 1516 1517 1518 1519 1520 1520 1521 1522 1524
1546 1547 1549 1549 1550 1551 1550 1551 1551 1551 1551 1550 1550 1550 1549 1548 1547 1546 1545 1544 1543 1542 1541 1540 1539 1538 1537 1536 1535 1534 1533 1532 1530 1529 1528 1527 1526 1525 1524 1523 1522 1520 1519 1518 1517 1516 1515 1514 1514 1513 1513 1513 1512 1512 1512 1513 1513 1514 1515 1516 1516 1517 1519
1545 1546 1548 1548 1549 1549 1549 1550 1550 1550 1550 1550 1549 1549 1548 1548 1547 1546 1545 1544 1543 1541 1540 1539 1538 1537 1536 1534 1533 1532 1531 1530 1529 1528 1527 1526 1525 1523 1522 1521 1520 1518 1517 1516 1515 1514 1513 1512 1511 1510 1510 1510 1509 1508 1508 1509 1509 1510 1511 1511 1512 1513 1515
1544 1546 1547 1547 1548 1548 1549 1549 1549 1549 1549 1549 1549 1548 1547 1547 1546 1545 1544 1543 1542 1541 1540 1539 1537 1536 1535 1533 1532 1530 1529 1528 1527 1526 1525 1524 1523 1521 1520 1519 1518 1516 1515 1513 1513 1511 1510 1509 1508 1507 1507 1506 1505 1505 1504 1504 1505 1506 1506 1507 1508 1509 1511
1544 1545 1546 1547 1547 1548 1548 1548 1548 1549 1548 1548 1548 1547 1546 1546 1544 1544 1543 1542 1541 1539 1538 1537 1535 1534 1532 1531 1530 1528 1527 1526 1525 1523 1522 1521 1520 1519 1518 1517 1515 1514 1513 1511 1510 1509 1508 1507 1505 1504 1504 1503 1502 1501 1501 1501 1501 1501 1501 1502 1504 1505 1507
1543 1544 1546 1546 1547 1547 1547 1548 1547 1547 1547 1547 1546 1546 1545 1544 1543 1542 1541 1540 1539 1537 1536 1535 1533 1531 1530 1529 1527 1526 1525 1524 1522 1521 1520 1518 1517 1516 1515 1514 1513 1512 1510 1509 1508 1506 1505 1504 1503 1501 1500 1500 1499 1498 1498 1497 1497 1496 1497 1498 1499 1501 1503
1542 1544 1545 1546 1546 1547 1547 1547 1547 1546 1546 1546 1545 1545 1543 1542 1541 1540 1539 1538 1537 1535 1534 1532 1531 1529 1528 1526 1525 1523 1522 1521 1520 1519 1517 1516 1515 1513 1512 1511 1510 1509 1508 1506 1505 1504 1502 1501 1500 1499 1497 1497 1496 1495 1495 1494 1493 1493 1492 1493 1494 1496 1499
1542 1543 1544 1545 1545 1546 1546 1546 1546 1546 1545 1545 1545 1544 1542 1541 1540 1539 1538 1536 1535 1534 1532 1530 1529 1527 1525 1524 1522 1521 1520 1518 1517 1516 1514 1513 1512 1510 1509 1508 1507 1506 1505 1504 1502 1501 1500 1498 1497 1496 1494 1494 1493 1492 1491 1491 1490 1489 1488 1488 1489 1491 1494
1541 1542 1543 1544 1545 1545 1545 1545 1545 1545 1545 1544 1543 1542 1541 1540 1539 1538 1537 1535 1534 1532 1531 1529 1527 1525 1524 1522 1520 1518 1517 1515 1514 1513 1511 1510 1509 1508 1507 1505 1505 1503 1502 1501 1500 1499 1497 1496 1494 1493 1491 1490 1489 1489 1488 1488 1487 1486 1485 1484 1484 1486 1488
1540 1541 1543 1543 1544 1545 1544 1545 1544 1544 1544 1543 1542 1541 1540 1539 1538 1536 1535 1534 1532 1531 1529 1527 1526 1524 1522 1520 1518 1516 1515 1513 1512 1510 1509 1507 1506 1505 1504 1503 1502 1501 1499 1498 1497 1496 1495 1493 1492 1490 1489 1488 1486 1486 1486 1485 1485 1484 1483 1482 1483 1483 1485
1539 1540 1541 1542 1543 1543 1543 1544 1543 1543 1542 1541 1540 1539 1538 1537 1536 1534 1533 1531 1530 1528 1527 1525 1524 1522 1520 1518 1517 1515 1513 1511 1510 1508 1506 1505 1504 1503 1501 1500 1499 1498 1497 1496 1495 1494 1492 1491 1490 1488 1487 1486 1484 1483 1483 1482 1482 1481 1480 1480 1481 1482 1483
1538 1539 1540 1541 1542 1542 1542 1542 1542 1541 1541 1540 1539 1537 1536 1535 1533 1532 1531 1529 1528 1526 1525 1523 1521 1520 1518 1517 1515 1513 1512 1510 1508 1506 1504 1503 1502 1500 1499 1498 1496 1495 1494 1493 1492 1491 1490 1488 1487 1485 1484 1483 1482 1481 1480 1480 1479 1478 1478 1478 1479 1480 1482
1537 1538 1539 1540 1541 1541 1541 1541 1540 1540 1539 1538 1537 1536 1534 1533 1531 1530 1529 1527 1526 1524 1523 1521 1519 1517 1516 1515 1513 1511 1510 1508 1506 1505 1503 1501 1500 1498 1497 1495 1494 1493 1491 1490 1489 1488 1487 1486 1484 1483 1482 1481 1480 1478 1477 1477 1476 1476 1476 1476 1477 1478 1480
1536 1537 1538 1539 1539 1539 1539 1539 1538 1538 1537 1536 1535 1534 1533 1531 1530 1529 1527 1526 1524 1523 1521 1519 1517 1516 1514 1513 1511 1510 1508 1506 1504 1503 1501 1499 1498 1496 1495 1493 1492 1490 1489 1487 1486 1485 1484 1483 1482 1481 1479 1478 1477 1476 1475 1474 1473 1474 1474 1474 1474 1476 1477
1535 1537 1537 1538 1538 1538 1538 1537 1537 1536 1535 1534 1533 1532 1531 1529 1528 1527 1525 1524 1523 1521 1519 1518 1516 1515 1513 1511 1510 1508 1506 1504 1503 1501 1499 1498 1496 1494 1493 1491 1490 1488 1487 1485 1484 1483 1482 1481 1479 1478 1477 1475 1474 1473 1473 1472 1471 1471 1472 1472 1472 1473 1474
1535 1535 1536 1537 1537 1537 1537 1536 1536 1535 1534 1533 1532 1531 1529 1528 1527 1526 1524 1523 1521 1519 1518 1517 1515 1513 1512 1510 1508 1506 1504 1502 1501 1499 1497 1495 1494 1492 1491 1489 1488 1486 1485 1483 1482 1480 1479 1478 1477 1476 1475 1473 1472 1471 1470 1469 1468 1468 1469 1470 1470 1470 1471
1534 1535 1536 1536 1536 1536 1536 1535 1535 1535 1534 1533 1531 1530 1529 1527 1526 1524 1523 1521 1520 1518 1517 1515 1514 1512 1510 1508 1506 1504 1502 1500 1498 1497 1495 1493 1492 1490 1489 1487 1486 1484 1483 1481 1479 1478 1477 1476 1475 1474 1473 1472 1470 1469 1467 1466 1466 1466 1466 1466 1467 1467 1467
1533 1534 1535 1535 1535 1535 1535 1535 1534 1534 1533 1532 1530 1529 1528 1526 1525 1523 1522 1520 1519 1517 1516 1514 1512 1511 1509 1507 1505 1502 1500 1498 1496 1494 1492 1491 1489 1488 1486 1485 1483 1482 1480 1478 1477 1476 1474 1473 1472 1472 1471 1470 1468 1467 1465 1464 1463 1463 1463 1463 1464 1464 1464
1533 1533 1534 1534 1534 1534 1534 1534 1533 1532 1532 1530 1529 1528 1526 1524 1523 1522 1520 1519 1518 1516 1514 1513 1511 1509 1507 1505 1502 1500 1498 1496 1494 1492 1490 1489 1487 1485 1484 1482 1481 1480 1478 1476 1475 1473 1472 1471 1470 1469 1469 1468 1467 1465 1463 1462 1461 1460 1461 1461 1461 1461 1461
1532 1533 1533 1533 1533 1533 1533 1533 1532 1531 1530 1529 1527 1526 1524 1523 1522 1520 1519 1518 1516 1515 1513 1511 1510 1508 1505 1503 1500 1498 1496 1494 1491 1489 1488 1486 1484 1483 1481 1480 1478 1477 1476 1474 1472 1471 1470 1469 1468 1467 1466 1465 1465 1463 1462 1460 1459 1458 1458 1458 1459 1459 1459
1531 1532 1532 1532 1532 1532 1532 1531 1530 1529 1528 1527 1526 1524 1522 1521 1520 1519 1518 1516 1515 1513 1511 1510 1508 1505 1503 1501 1498 1496 1493 1491 1489 1487 1485 1484 1482 1480 1479 1477 1476 1475 1473 1472 1470 1468 1467 1466 1465 1465 1464 1463 1462 1461 1460 1458 1457 1456 1456 1456 1456 1456 1457
1531 1531 1531 1531 1531 1531 1531 1530 1528 1528 1526 1525 1524 1522 1521 1519 1518 1518 1516 1515 1513 1512 1510 1508 1505 1503 1501 1498 1496 1494 1491 1489 1487 1485 1483 1481 1479 1478 1476 1474 1473 1472 1470 1469 1467 1466 1465 1463 1462 1462 1461 1460 1460 1458 1457 1456 1455 1454 1454 1454 1454 1454 1454
1530 1530 1530 1531 1530 1529 1529 1528 1527 1526 1525 1523 1522 1520 1519 1517 1516 1515 1514 1513 1511 1510 1508 1506 1503 1501 1498 1496 1494 1491 1489 1486 1485 1482 1480 1478 1476 1475 1474 1472 1470 1469 1468 1466 1465 1463 1462 1460 1460 1459 1458 1458 1457 1456 1455 1454 1453 1452 1452 1451 1452 1452 1452
1529 1529 1529 1529 1528 1528 1527 1526 1526 1525 1523 1521 1520 1518 1517 1515 1514 1513 1512 1511 1510 1508 1506 1504 1501 1498 1496 1493 1491 1489 1487 1484 1482 1480 1478 1476 1474 1472 1471 1469 1468 1466 1465 1464 1462 1460 1459 1458 1457 1456 1455 1454 1454 1453 1452 1451 1450 1449 1449 1449 1449 1449 1449
1528 1528 1528 1528 1527 1527 1525 1524 1524 1523 1521 1520 1518 1516 1515 1514 1512 1511 1510 1509 1507 1505 1503 1501 1499 1496 1494 1491 1489 1486 1484 1482 1480 1478 1476 1473 1471 1470 1468 1466 1465 1464 1462 1461 1459 1457 1456 1455 1454 1453 1452 1451 1451 1450 1449 1448 1447 1446 1446 1446 1446 1446 1446
1527 1527 1527 1526 1526 1525 1524 1523 1521 1520 1519 1518 1516 1515 1513 1512 1511 1509 1508 1506 1505 1503 1501 1499 1496 1494 1491 1489 1486 1484 1482 1480 1477 1475 1473 1471 1469 1467 1465 1464 1462 1461 1459 1458 1456 1455 1454 1453 1452 1450 1449 1449 1448 1447 1446 1445 1444 1444 1443 1443 1443 1443 1443
1526 1526 1525 1525 1525 1523 1522 1521 1520 1518 1517 1516 1514 1513 1511 1510 1509 1507 1505 1504 1502 1500 1498 1496 1494 1491 1489 1487 1484 1482 1480 1477 1475 1473 1471 1469 1466 1464 1462 1461 1460 1458 1457 1455 1454 1453 1451 1450 1449 1447 1446 1446 1445 1444 1443 1443 1442 1441 1441 1441 1441 1440 1440
1525 1524 1524 1523 1522 1521 1520 1519 1518 1517 1515 1514 1512 1511 1510 1509 1507 1505 1504 1502 1500 1498 1496 1493 1491 1489 1486 1484 1482 1480 1477 1475 1472 1470 1468 1466 1464 1462 1460 1459 1457 1456 1454 1453 1452 1451 1449 1448 1447 1445 1444 1444 1443 1442 1441 1440 1440 1439 1439 1439 1438 1438 1437
1523 1523 1522 1521 1520 1519 1518 1517 1516 1515 1513 1512 1510 1509 1508 1507 1505 1503 1502 1500 1498 1496 1494 1491 1489 1486 1484 1482 1480 1477 1475 1472 1470 1468 1466 1463 1461 1459 1458 1456 1455 1454 1452 1451 1450 1448 1447 1446 1445 1443 1443 1442 1441 1440 1439 1438 1438 1437 1437 1437 1437 1436 1435
1522 1521 1520 1519 1519 1518 1516 1515 1514 1513 1511 1510 1509 1507 1506 1504 1503 1501 1500 1498 1496 1494 1491 1489 1487 1484 1482 1480 1477 1475 1473 1470 1468 1466 1463 1461 1459 1457 1455 1454 1452 1451 1449 1448 1448 1446 1445 1444 1443 1442 1441 1441 1440 1439 1438 1436 1436 1435 1434 1435 1435 1434 1434
1520 1520 1519 1518 1517 1516 1515 1514 1512 1511 1510 1508 1507 1505 1504 1502 1501 1500 1497 1496 1494 1492 1489 1487 1484 1482 1480 1478 1475 1473 1471 1468 1466 1463 1461 1459 1456 1454 1452 1451 1449 1448 1446 1445 1444 1443 1442 1441 1440 1439 1439 1438 1438 1437 1435 1435 1434 1433 1432 1432 1433 1433 1432
1519 1518 1517 1516 1516 1514 1513 1512 1511 1509 1508 1507 1505 1504 1502 1501 1499 1497 1495 1494 1492 1489 1487 1484 1481 1479 1478 1475 1473 1471 1468 1465 1463 1461 1459 1457 1454 1452 1449 1447 1446 1444 1443 1441 1441 1440 1438 1437 1436 1435 1435 1434 1434 1433 1432 1431 1431 1430 1429 1429 1429 1430 1430
1517 1516 1516 1515 1514 1512 1512 1510 1509 1508 1506 1505 1503 1502 1500 1499 1497 1495 1493 1492 1490 1487 1485 1482 1479 1477 1475 1473 1471 1468 1465 1463 1460 1458 1456 1454 1452 1450 1446 1443 1442 1441 1440 1438 1437 1436 1435 1434 1433 1432 1431 1430 1430 1429 1429 1428 1427 1426 1426 1426 1426 1426 1427
1516 1515 1514 1513 1512 1511 1510 1509 1507 1506 1504 1503 1501 1500 1499 1497 1495 1493 1492 1490 1487 1485 1482 1480 1478 1475 1472 1470 1468 1465 1463 1461 1458 1456 1453 1451 1449 1447 1444 1441 1439 1437 1436 1435 1434 1432 1432 1431 1430 1429 1428 1428 1427 1426 1425 1425 1424 1423 1423 1423 1423 1423 1424